Location: McCall
(45.0000°N, 116.0000°W)
Time: 14:15:43
(UTC-06:00)

Saudisat 1A - Visible Passes

Search period start: 22 September 2014 00:00
Search period end: 02 October 2014 00:00
Orbit: 600 x 607 km, 64.6° (Epoch: 21 September)

Date Brightness Start Highest point End Pass type
(mag) Time Alt. Az. Time Alt. Az. Time Alt. Az.
27 Sep 10.9 22:49:44 10° N 22:50:06 11° N 22:50:06 11° N visible
28 Sep 11.0 23:01:29 10° NNW 23:01:52 12° N 23:01:52 12° N visible
29 Sep 11.1 23:13:25 10° NNW 23:13:39 11° NNW 23:13:39 11° NNW visible
30 Sep 10.5 21:47:18 10° N 21:48:39 12° NNE 21:48:39 12° NNE visible
01 Oct 10.3 21:58:53 10° N 22:00:28 16° N 22:00:28 16° N visible
